Regional Weather Roundup
Issued by NWS

Home | Current Version | Previous Version | Text Only | Print | Product List | Glossary On
Versions: 1 2 3 4 5 6 7 8 9 10 11 12 13 14 15 16 17 18 19 20 21 22 23 24 25 26 27 28 29 30 31 32 33 34 35 36 37 38 39 40 41 42 43 44 45 46 47 48 49 50
000
ASUS45 KREV 220210
RWRNV
NEVADA REGIONAL WEATHER ROUNDUP
NATIONAL WEATHER SERVICE RENO NV
700 PM PDT MON AUG 21 2017

NOTE: "FAIR" INDICATES FEW OR NO CLOUDS BELOW 12,000 FEET WITH NO
SIGNIFICANT WEATHER AND/OR OBSTRUCTIONS TO VISIBILITY.

NVZ001-003-004-220300-
WESTERN NEVADA

CITY           SKY/WX    TMP DP  RH WIND       PRES   REMARKS
RENO           MOCLDY    89  34  14 SE12      30.06S
CARSON CITY    FAIR      81  46  30 SE3       30.13R
MINDEN         FAIR      77  45  31 CALM      30.14R
FALLON         MOCLDY    88  32  13 SE17      30.04R
LOVELOCK       CLEAR     89  37  16 SW6       30.02F
HAWTHORNE      CLEAR     86  32  14 S16       30.08R
$$

NVZ002-CAZ072-073-220300-
NORTHERN AND CENTRAL SIERRA

CITY           SKY/WX    TMP DP  RH WIND       PRES   REMARKS
S. LAKE TAHOE  MOCLDY    65  46  50 S8        30.27F
TRUCKEE        MOCLDY    63  55  77 SW6       30.25F
SQUAW VLY 8000   N/A     57  46  67 SW13        N/A
SUSANVILLE     CLEAR     84  39  20 SW5       30.06S
MAMMOTH LAKES  FAIR      70  36  28 E8        30.30S
BRIDGEPORT     FAIR      69  45  41 SW3       30.27S
$$

NVZ030-031-036-220300-
NORTHERN NEVADA

CITY           SKY/WX    TMP DP  RH WIND       PRES   REMARKS
ELKO           PTCLDY    82  32  16 NW7       30.11S
WINNEMUCCA     CLEAR     91  32  12 NE7       30.06S
WENDOVER       CLEAR     87  34  15 S3        30.09S
$$

NVZ035-037-220300-
CENTRAL NEVADA

CITY           SKY/WX    TMP DP  RH WIND       PRES   REMARKS
ELY            MOCLDY    79  35  20 SE8       30.23S
EUREKA           N/A     78  36  21 N8        30.18F
$$

NVZ013-014-220300-
SOUTH CENTRAL NEVADA

CITY           SKY/WX    TMP DP  RH WIND       PRES   REMARKS
TONOPAH        MOCLDY    77  40  26 S8        30.21S
$$

NVZ017-020-022-220300-
SOUTHERN NEVADA

CITY           SKY/WX    TMP DP  RH WIND       PRES   REMARKS
LAS VEGAS      PTCLDY    89  53  29 NE9       30.00S
N. LAS VEGAS   PTCLDY    88  49  25 E5        29.99F
NELLIS AFB     PTCLDY    90  53  28 NE6       29.97F
HENDERSON      PTCLDY    87  53  31 NE8       30.03S
MERCURY        MOCLDY    83  50  31 E9        30.07S
$$



USA.gov is the U.S. government's official web portal to all federal, state and local government web resources and services.